 ,,�O�C���x [��],����1,�O�C���x [��],����2,���ԉ��x [��],����3,���Ԏ��x [��],����4,�Q�����x [��],����5,�Q�����x [��],����6,�Q�X�g���[��(��󒲎�)���x [��],����7,���� [��],����8
2004/10/1,0:00,16.9,0,83.5,0,24.5,0,71.1,0,23.9,0,71.3,0,24,0,21.1,0
2004/10/1,0:15,16.3,0,86.5,0,24.5,0,71.1,0,23.9,0,71.6,0,24,0,21.2,0
2004/10/1,0:30,15,0,95.8,0,24.4,0,71.2,0,23.9,0,71.4,0,24,0,21.3,0
2004/10/1,0:45,14.6,0,98.6,0,24.4,0,71.2,0,23.8,0,71.5,0,23.9,0,20.9,0
2004/10/1,1:00,14.6,0,99.2,0,24.3,0,71.2,0,23.8,0,71.5,0,23.9,0,20.9,0
2004/10/1,1:15,14.4,0,99.9,0,24.2,0,71.4,0,23.8,0,71.6,0,23.9,0,20.9,0
2004/10/1,1:30,14.2,0,100,0,24.2,0,71.6,0,23.7,0,71.5,0,23.9,0,21,0
2004/10/1,1:45,14.7,0,97.9,0,24.1,0,71.8,0,23.7,0,71.5,0,23.8,0,21.1,0
2004/10/1,2:00,14.3,0,99.4,0,24,0,71.8,0,23.6,0,71.8,0,23.8,0,21.1,0
2004/10/1,2:15,13.8,0,100,0,23.9,0,71.8,0,23.6,0,71.9,0,23.8,0,21.1,0
2004/10/1,2:30,13.7,0,100,0,23.8,0,71.8,0,23.5,0,72,0,23.7,0,21.2,0
2004/10/1,2:45,13.6,0,100,0,23.8,0,71.8,0,23.5,0,71.9,0,23.7,0,21.2,0
2004/10/1,3:00,13.4,0,100,0,23.7,0,71.8,0,23.5,0,71.7,0,23.6,0,21.3,0
2004/10/1,3:15,13.2,0,100,0,23.6,0,71.8,0,23.4,0,71.6,0,23.6,0,21.3,0
2004/10/1,3:30,12.9,0,100,0,23.6,0,71.9,0,23.4,0,71.5,0,23.5,0,21.4,0
2004/10/1,3:45,13,0,100,0,23.5,0,71.8,0,23.3,0,71.8,0,23.5,0,21.4,0
2004/10/1,4:00,12.7,0,100,0,23.5,0,71.8,0,23.3,0,71.9,0,23.5,0,21.5,0
2004/10/1,4:15,12.9,0,100,0,23.4,0,71.8,0,23.2,0,71.8,0,23.4,0,21.5,0
2004/10/1,4:30,12.9,0,100,0,23.4,0,71.8,0,23.2,0,71.8,0,23.4,0,21.5,0
2004/10/1,4:45,13.1,0,100,0,23.3,0,71.8,0,23.1,0,72,0,23.3,0,21.6,0
2004/10/1,5:00,13,0,100,0,23.2,0,71.7,0,23.1,0,71.6,0,23.3,0,21.6,0
2004/10/1,5:15,12.8,0,100,0,23.2,0,71.7,0,23.1,0,71.6,0,23.2,0,21.7,0
2004/10/1,5:30,12.7,0,100,0,23.1,0,71.6,0,23,0,71.6,0,23.2,0,21.7,0
2004/10/1,5:45,12.7,0,100,0,23.1,0,71.7,0,23,0,71.6,0,23.1,0,21.7,0
2004/10/1,6:00,12.8,0,100,0,23,0,71.6,0,23,0,71.4,0,23.1,0,21.8,0
2004/10/1,6:15,12.9,0,100,0,23,0,71.6,0,23,0,71.3,0,23.1,0,21.8,0
2004/10/1,6:30,13,0,100,0,23,0,71.6,0,23,0,71.5,0,23,0,21.8,0
2004/10/1,6:45,13.2,0,100,0,23,0,71.5,0,23,0,71.7,0,23,0,21.9,0
2004/10/1,7:00,13.8,0,100,0,23,0,71.5,0,23.1,0,71.6,0,23,0,21.9,0
2004/10/1,7:15,14.3,0,100,0,23.2,0,71.6,0,23.1,0,71.3,0,23,0,20.4,0
2004/10/1,7:30,15.3,0,100,0,23.3,0,72.9,0,23.3,0,71.5,0,23,0,20.5,0
2004/10/1,7:45,16.3,0,97.8,0,23.3,0,72.4,0,23.4,0,69.8,0,23.1,0,20.3,0
2004/10/1,8:00,16.6,0,95.6,0,23.4,0,73.5,0,23.6,0,69.6,0,23.1,0,20.4,0
2004/10/1,8:15,17.2,0,93.8,0,23.6,0,74.5,0,23.7,0,69.8,0,23.2,0,20.4,0
2004/10/1,8:30,17.7,0,91,0,23.6,0,78.1,0,24,0,70.6,0,23.3,0,20.4,0
2004/10/1,8:45,18.1,0,90.5,0,23.7,0,75.1,0,24.2,0,69.8,0,23.4,0,20.5,0
2004/10/1,9:00,18.3,0,88.5,0,23.8,0,75.3,0,24.5,0,69.1,0,23.5,0,20.5,0
2004/10/1,9:15,18.7,0,88.4,0,23.9,0,75,0,24.7,0,68.5,0,23.5,0,20.6,0
2004/10/1,9:30,18.9,0,84.3,0,23.9,0,74.9,0,24.9,0,67.8,0,23.6,0,20.6,0
2004/10/1,9:45,19.2,0,81.8,0,24,0,74.7,0,25.2,0,67.1,0,23.7,0,20.7,0
2004/10/1,10:00,19.7,0,76.3,0,24.1,0,74.5,0,25.4,0,66.5,0,23.8,0,20.7,0
2004/10/1,10:15,19.8,0,78.4,0,24.1,0,74.3,0,25.7,0,66,0,23.9,0,20.8,0
2004/10/1,10:30,20.8,0,75.1,0,24.2,0,74.1,0,25.9,0,65.4,0,23.9,0,20.9,0
2004/10/1,10:45,20.9,0,72.2,0,24.2,0,73.8,0,26.2,0,64.9,0,24,0,20.9,0
2004/10/1,11:00,21.4,0,70.5,0,24.3,0,73.6,0,26.4,0,64.5,0,24.1,0,20.9,0
2004/10/1,11:15,21.5,0,71.8,0,24.3,0,73.4,0,26.6,0,63.9,0,24.2,0,21,0
2004/10/1,11:30,22.3,0,70.3,0,24.4,0,73.3,0,26.8,0,63.6,0,24.3,0,21.1,0
2004/10/1,11:45,22.2,0,70.4,0,24.4,0,73.2,0,27,0,63,0,24.4,0,21.1,0
2004/10/1,12:00,22.8,0,67.7,0,24.5,0,73.2,0,27.2,0,62.5,0,24.5,0,21.1,0
2004/10/1,12:15,22.6,0,69.1,0,24.5,0,73.2,0,27.3,0,62,0,24.6,0,21.2,0
2004/10/1,12:30,23.2,0,65,0,24.6,0,73,0,27.5,0,61.6,0,24.7,0,21.2,0
2004/10/1,12:45,23.3,0,64.8,0,24.6,0,72.7,0,27.6,0,61.3,0,24.8,0,21.3,0
2004/10/1,13:00,23.3,0,63.5,0,24.7,0,72.5,0,27.7,0,61.1,0,24.9,0,21.3,0
2004/10/1,13:15,23.7,0,63,0,24.8,0,72.3,0,27.8,0,60.7,0,25,0,21.4,0
2004/10/1,13:30,23.3,0,64.5,0,24.9,0,72,0,27.9,0,60.5,0,25.2,0,21.4,0
2004/10/1,13:45,23.2,0,65.5,0,25.1,0,71.8,0,28.1,0,59.8,0,25.4,0,21.5,0
2004/10/1,14:00,23.4,0,64.3,0,25.2,0,71.4,0,28.3,0,59.3,0,25.6,0,21.5,0
2004/10/1,14:15,23.3,0,64.6,0,25.3,0,71.1,0,28.3,0,59.7,0,25.8,0,21.6,0
2004/10/1,14:30,23.1,0,64.3,0,25.5,0,70.8,0,28.4,0,59.4,0,26,0,21.6,0
2004/10/1,14:45,22.9,0,65.9,0,25.6,0,70.6,0,28.5,0,59.3,0,26.2,0,21.7,0
2004/10/1,15:00,22.5,0,67.5,0,25.7,0,70.5,0,28.5,0,59.2,0,26.4,0,21.7,0
2004/10/1,15:15,22.1,0,69.6,0,25.8,0,70.4,0,28.6,0,59.6,0,26.6,0,21.8,0
2004/10/1,15:30,21.5,0,70.7,0,25.9,0,70,0,28.6,0,59.7,0,26.8,0,21.8,0
2004/10/1,15:45,21.1,0,72.9,0,26,0,69.7,0,28.5,0,60.2,0,27.3,0,21.9,0
2004/10/1,16:00,20.7,0,74.7,0,26,0,69.6,0,28.5,0,60.5,0,28.6,0,21.9,0
2004/10/1,16:15,20.3,0,77.5,0,26,0,69.6,0,28.4,0,60.8,0,28.4,0,21.9,0
2004/10/1,16:30,19.9,0,78.8,0,25.9,0,69.8,0,28.1,0,61.8,0,27.9,0,22,0
2004/10/1,16:45,19.6,0,80,0,25.8,0,69.9,0,27.9,0,62.2,0,27.6,0,22,0
2004/10/1,17:00,19.2,0,82.3,0,25.7,0,69.9,0,27.7,0,62.7,0,27.5,0,22.1,0
2004/10/1,17:15,18.9,0,84.9,0,25.7,0,69.9,0,27.6,0,63.1,0,27.3,0,22.1,0
2004/10/1,17:30,18.6,0,86.2,0,25.6,0,69.8,0,27.4,0,63.4,0,27.1,0,22.2,0
2004/10/1,17:45,18.1,0,89,0,25.5,0,69.7,0,27.3,0,63.8,0,27,0,22.2,0
2004/10/1,18:00,17.8,0,90.1,0,25.5,0,69.4,0,27.1,0,64.1,0,26.9,0,22.3,0
2004/10/1,18:15,17.5,0,92.4,0,25.5,0,69.6,0,27,0,64.4,0,26.8,0,22.3,0
2004/10/1,18:30,17.5,0,92.9,0,25.5,0,69.6,0,26.9,0,64.4,0,26.7,0,22.3,0
2004/10/1,18:45,17.3,0,94.6,0,25.5,0,69.7,0,26.8,0,64.6,0,26.6,0,22.4,0
2004/10/1,19:00,16.9,0,96.4,0,25.5,0,69.8,0,26.7,0,64.9,0,26.5,0,22.4,0
2004/10/1,19:15,16.5,0,97,0,25.5,0,69.8,0,26.6,0,65,0,26.4,0,22.5,0
2004/10/1,19:30,16.3,0,97.9,0,25.5,0,70.1,0,26.5,0,65.3,0,26.3,0,22.5,0
2004/10/1,19:45,16.2,0,98.2,0,25.5,0,70.1,0,26.4,0,65.6,0,26.2,0,22.5,0
2004/10/1,20:00,15.8,0,99.1,0,25.5,0,70.2,0,26.3,0,65.7,0,26.2,0,20.5,0
2004/10/1,20:15,15.6,0,100,0,25.5,0,70.3,0,26.2,0,66.1,0,26.1,0,20.6,0
2004/10/1,20:30,15.6,0,100,0,25.4,0,70.1,0,26.2,0,65.7,0,26.1,0,20.7,0
2004/10/1,20:45,15.6,0,99.3,0,25.4,0,70.3,0,26.1,0,66,0,26,0,20.7,0
2004/10/1,21:00,15.9,0,100,0,25.5,0,71,0,26,0,66.3,0,25.9,0,20.8,0
2004/10/1,21:15,16.2,0,99.9,0,25.5,0,70.9,0,26,0,66.5,0,25.9,0,20.9,0
2004/10/1,21:30,16.1,0,100,0,25.5,0,70.8,0,25.9,0,66.7,0,25.8,0,20.9,0
2004/10/1,21:45,16.3,0,100,0,25.5,0,70.7,0,25.9,0,66.9,0,25.8,0,21,0
2004/10/1,22:00,15.7,0,100,0,25.5,0,71.5,0,25.8,0,67,0,25.7,0,21,0
2004/10/1,22:15,15.9,0,100,0,25.5,0,71.1,0,25.7,0,67.3,0,25.7,0,21.1,0
2004/10/1,22:30,15.6,0,100,0,25.4,0,71,0,25.7,0,67.4,0,25.6,0,21.1,0
2004/10/1,22:45,15.4,0,100,0,25.4,0,71,0,25.6,0,67.5,0,25.6,0,21.2,0
2004/10/1,23:00,15.1,0,100,0,25.4,0,70.8,0,25.6,0,67.6,0,25.5,0,21.3,0
2004/10/1,23:15,14.9,0,100,0,25.3,0,70.7,0,25.5,0,67.7,0,25.5,0,21.3,0
2004/10/1,23:30,14.7,0,100,0,25.3,0,70.8,0,25.4,0,67.7,0,25.5,0,21.4,0
2004/10/1,23:45,14.6,0,100,0,25.3,0,70.5,0,25.4,0,67.9,0,25.4,0,20.7,0
2004/10/2,0:00,14.5,0,100,0,25.2,0,70.4,0,25.3,0,67.9,0,25.4,0,20.8,0
2004/10/2,0:15,14.4,0,100,0,25.1,0,70.1,0,25.3,0,68,0,25.3,0,20.9,0
2004/10/2,0:30,14.4,0,100,0,25,0,70,0,25.2,0,68.2,0,25.2,0,20.9,0
2004/10/2,0:45,14.2,0,100,0,25,0,69.8,0,25.2,0,68.4,0,25.2,0,21,0
2004/10/2,1:00,14.2,0,100,0,24.9,0,69.8,0,25.1,0,68.5,0,25.1,0,21.1,0
2004/10/2,1:15,14.1,0,100,0,24.8,0,69.8,0,25.1,0,68.6,0,25.1,0,21.1,0
2004/10/2,1:30,14,0,100,0,24.7,0,69.8,0,25,0,68.8,0,25,0,21.2,0
2004/10/2,1:45,13.9,0,100,0,24.7,0,69.7,0,25,0,68.4,0,25,0,21.2,0
2004/10/2,2:00,13.7,0,100,0,24.6,0,69.7,0,24.9,0,68.6,0,24.9,0,21.3,0
2004/10/2,2:15,13.6,0,100,0,24.5,0,69.7,0,24.9,0,68.1,0,24.9,0,21.3,0
2004/10/2,2:30,13.5,0,100,0,24.4,0,69.7,0,24.8,0,68.6,0,24.8,0,21.4,0
2004/10/2,2:45,13.5,0,100,0,24.4,0,69.6,0,24.8,0,68.4,0,24.8,0,21.4,0
2004/10/2,3:00,13.4,0,100,0,24.3,0,69.6,0,24.8,0,68.5,0,24.7,0,21.5,0
2004/10/2,3:15,13.4,0,100,0,24.3,0,69.8,0,24.7,0,68.8,0,24.7,0,21.5,0
2004/10/2,3:30,13.3,0,100,0,24.2,0,69.8,0,24.7,0,69,0,24.6,0,21.5,0
2004/10/2,3:45,13.3,0,100,0,24.1,0,69.9,0,24.6,0,69,0,24.6,0,21.6,0
2004/10/2,4:00,13.2,0,100,0,24.1,0,70,0,24.6,0,69.2,0,24.5,0,21.6,0
2004/10/2,4:15,13.1,0,100,0,24.1,0,69.9,0,24.5,0,68.9,0,24.5,0,21.7,0
2004/10/2,4:30,13,0,100,0,24,0,70,0,24.5,0,69.1,0,24.4,0,21.7,0
2004/10/2,4:45,13,0,100,0,23.9,0,69.9,0,24.4,0,68.7,0,24.4,0,21.8,0
2004/10/2,5:00,12.9,0,100,0,23.9,0,70,0,24.4,0,68.6,0,24.3,0,21.8,0
2004/10/2,5:15,12.8,0,100,0,23.8,0,70,0,24.4,0,68.6,0,24.3,0,21.8,0
2004/10/2,5:30,12.9,0,100,0,23.8,0,69.9,0,24.3,0,68.6,0,24.3,0,21.9,0
2004/10/2,5:45,12.9,0,100,0,23.7,0,70,0,24.3,0,68.6,0,24.2,0,21.9,0
2004/10/2,6:00,13.1,0,100,0,23.7,0,69.9,0,24.3,0,68.8,0,24.2,0,21.9,0
2004/10/2,6:15,13.1,0,100,0,23.9,0,69.2,0,24.2,0,69.3,0,24.1,0,21,0
2004/10/2,6:30,13.6,0,100,0,23.9,0,69.9,0,24.2,0,69.2,0,24.1,0,21,0
2004/10/2,6:45,13.7,0,100,0,24,0,69.9,0,24.2,0,69.3,0,24.1,0,20.7,0
2004/10/2,7:00,14.3,0,100,0,24,0,69.9,0,24.2,0,69.1,0,24.1,0,20.7,0
2004/10/2,7:15,14.6,0,100,0,24.1,0,74.5,0,24.3,0,69.2,0,24.1,0,20.8,0
2004/10/2,7:30,15.2,0,100,0,24.2,0,75.5,0,24.5,0,70.6,0,24.1,0,20.7,0
2004/10/2,7:45,16,0,100,0,24.3,0,74.1,0,24.5,0,69.4,0,24.2,0,20.7,0
2004/10/2,8:00,16.6,0,100,0,24.4,0,73.3,0,24.7,0,69.2,0,24.2,0,20.8,0
2004/10/2,8:15,16.9,0,99.1,0,24.4,0,72.7,0,24.8,0,68.6,0,24.3,0,20.8,0
2004/10/2,8:30,17.5,0,97.5,0,24.5,0,72.5,0,25.1,0,67.8,0,24.3,0,19.9,0
2004/10/2,8:45,18.2,0,92.3,0,24.6,0,72.9,0,25.4,0,67.9,0,24.4,0,19.9,0
2004/10/2,9:00,18.5,0,89.7,0,24.7,0,73.9,0,25.6,0,67.3,0,24.5,0,19.6,0
2004/10/2,9:15,19.1,0,88.9,0,24.8,0,73.5,0,25.9,0,66.5,0,24.6,0,19.6,0
2004/10/2,9:30,19.5,0,86,0,24.9,0,73.1,0,26.2,0,65.8,0,24.6,0,19.7,0
2004/10/2,9:45,20.5,0,82.8,0,24.9,0,72.8,0,26.4,0,65.2,0,24.7,0,19.7,0
2004/10/2,10:00,21.3,0,79.4,0,25,0,72.4,0,26.7,0,64.4,0,24.8,0,19.8,0
2004/10/2,10:15,21.9,0,80.5,0,25.1,0,72.4,0,27,0,63.8,0,24.9,0,19.9,0
2004/10/2,10:30,22.6,0,77.7,0,25.2,0,72.3,0,27.2,0,63.3,0,25,0,19.9,0
2004/10/2,10:45,22.8,0,76.5,0,25.3,0,72.1,0,27.4,0,62.8,0,25.1,0,20,0
2004/10/2,11:00,23,0,76.5,0,25.3,0,72,0,27.6,0,62.3,0,25.2,0,20.1,0
2004/10/2,11:15,23.3,0,76.6,0,25.4,0,71.9,0,27.8,0,61.7,0,25.4,0,20.2,0
2004/10/2,11:30,23.8,0,75,0,25.5,0,71.8,0,28,0,61.6,0,25.5,0,20.3,0
2004/10/2,11:45,23.9,0,75,0,25.6,0,71.7,0,28.2,0,61,0,25.6,0,20.4,0
2004/10/2,12:00,24.6,0,73.1,0,25.7,0,71.6,0,28.4,0,60.5,0,25.8,0,20.5,0
2004/10/2,12:15,24.8,0,71.6,0,25.8,0,71.6,0,28.4,0,60.5,0,25.9,0,20.5,0
2004/10/2,12:30,25,0,71.4,0,25.8,0,71.5,0,28.2,0,61.3,0,26,0,20.6,0
2004/10/2,12:45,24.4,0,73.6,0,25.8,0,71.6,0,28.1,0,61.9,0,26.1,0,20.6,0
2004/10/2,13:00,25,0,70.3,0,25.9,0,71.6,0,28,0,62.3,0,26.2,0,20.7,0
2004/10/2,13:15,25.6,0,68.6,0,26,0,71.8,0,28.1,0,62.4,0,26.3,0,20.8,0
2004/10/2,13:30,25.9,0,65,0,26.1,0,71.3,0,28.3,0,61.8,0,26.4,0,20.8,0
2004/10/2,13:45,25.1,0,67,0,26.2,0,71,0,28.5,0,61.3,0,26.6,0,20.9,0
2004/10/2,14:00,26,0,60.4,0,26.4,0,70.8,0,28.7,0,60.9,0,26.7,0,21,0
2004/10/2,14:15,25.4,0,61.8,0,26.5,0,70.7,0,28.8,0,60.5,0,26.9,0,21,0
2004/10/2,14:30,25.4,0,58.9,0,26.5,0,70.9,0,28.6,0,61,0,27,0,21.1,0
2004/10/2,14:45,25.9,0,57.4,0,26.5,0,71,0,28.5,0,61.4,0,27.1,0,21.2,0
2004/10/2,15:00,25.3,0,61.3,0,26.7,0,70.8,0,28.7,0,61.1,0,27.2,0,21.3,0
2004/10/2,15:15,25.2,0,64.9,0,26.6,0,70.9,0,28.5,0,61.7,0,27.3,0,21.3,0
2004/10/2,15:30,25.1,0,69.8,0,26.8,0,70.6,0,28.7,0,61.6,0,27.4,0,21.4,0
2004/10/2,15:45,24,0,74.8,0,26.7,0,70.9,0,28.5,0,62.1,0,27.5,0,21.5,0
2004/10/2,16:00,23.4,0,77.3,0,26.7,0,71,0,28.3,0,62.7,0,27.5,0,21.5,0
2004/10/2,16:15,22.8,0,77.4,0,26.6,0,71.1,0,28.2,0,63.1,0,27.5,0,21.6,0
2004/10/2,16:30,22.5,0,78.4,0,26.6,0,71.1,0,28.1,0,63.4,0,27.4,0,21.7,0
2004/10/2,16:45,22.1,0,80.5,0,26.6,0,71.2,0,28,0,63.7,0,27.4,0,21.7,0
2004/10/2,17:00,22,0,79.6,0,26.6,0,71.1,0,27.8,0,64,0,27.4,0,21.8,0
2004/10/2,17:15,21.6,0,80.3,0,26.6,0,71.2,0,27.8,0,64.3,0,27.3,0,21.9,0
2004/10/2,17:30,21.3,0,82.1,0,26.6,0,71.2,0,27.7,0,64.5,0,27.3,0,21.9,0
2004/10/2,17:45,20.9,0,83.8,0,26.6,0,71.1,0,27.6,0,64.8,0,27.2,0,22,0
2004/10/2,18:00,20.8,0,84.3,0,26.6,0,71.2,0,27.5,0,65,0,27.2,0,21.1,0
2004/10/2,18:15,20.6,0,84.7,0,26.6,0,71.1,0,27.5,0,65.1,0,27.2,0,21.2,0
2004/10/2,18:30,20.4,0,83.8,0,26.6,0,71,0,27.4,0,65.3,0,27.1,0,21.3,0
2004/10/2,18:45,19.7,0,83.6,0,26.6,0,70.9,0,27.4,0,65.4,0,27.1,0,21.3,0
2004/10/2,19:00,19.3,0,85.3,0,26.6,0,70.8,0,27.3,0,65.6,0,27,0,21.4,0
2004/10/2,19:15,19,0,86.8,0,26.6,0,70.5,0,27.2,0,65.7,0,27,0,21.5,0
2004/10/2,19:30,18.7,0,87.2,0,26.6,0,70.8,0,27.2,0,65.8,0,27,0,21.5,0
2004/10/2,19:45,18.6,0,86.4,0,26.6,0,70.8,0,27.1,0,65.9,0,26.9,0,21.6,0
2004/10/2,20:00,18.6,0,88.6,0,26.6,0,71.4,0,27.1,0,66,0,26.9,0,21.7,0
2004/10/2,20:15,18.6,0,86.2,0,26.6,0,71.7,0,27,0,66.3,0,26.9,0,21.7,0
2004/10/2,20:30,18.4,0,87.7,0,26.5,0,71.6,0,27,0,66.6,0,26.8,0,21.8,0
2004/10/2,20:45,18.1,0,88.5,0,26.5,0,71.4,0,26.9,0,66.7,0,26.8,0,21.8,0
2004/10/2,21:00,18,0,88.4,0,26.5,0,72.4,0,26.8,0,66.7,0,26.8,0,20.3,0
2004/10/2,21:15,17.7,0,90.8,0,26.6,0,74.5,0,26.8,0,68.7,0,26.7,0,20.4,0
2004/10/2,21:30,17.2,0,95.8,0,26.5,0,73.2,0,26.8,0,68.2,0,26.7,0,20.5,0
2004/10/2,21:45,17.1,0,99.3,0,26.4,0,72.9,0,26.8,0,68.5,0,26.7,0,20.5,0
2004/10/2,22:00,17.1,0,100,0,26.4,0,72.5,0,26.8,0,68,0,26.7,0,20.6,0
2004/10/2,22:15,17.1,0,100,0,26.4,0,72.3,0,26.7,0,68.1,0,26.6,0,20.7,0
2004/10/2,22:30,16.9,0,100,0,26.3,0,72.1,0,26.7,0,68.5,0,26.6,0,20.7,0
2004/10/2,22:45,16.5,0,100,0,26.3,0,71.8,0,26.6,0,68.5,0,26.6,0,20.8,0
2004/10/2,23:00,16.4,0,100,0,26.2,0,71.9,0,26.6,0,68.1,0,26.5,0,20.9,0
2004/10/2,23:15,16.4,0,100,0,26.2,0,71.8,0,26.5,0,68.4,0,26.5,0,20.9,0
2004/10/2,23:30,15.8,0,100,0,26.2,0,71.5,0,26.5,0,68.2,0,26.4,0,21,0
2004/10/2,23:45,15.9,0,100,0,26.1,0,71.6,0,26.4,0,67.8,0,26.4,0,21.1,0
2004/10/3,0:00,15.7,0,100,0,26.1,0,71.6,0,26.4,0,68.1,0,26.3,0,21.1,0
2004/10/3,0:15,15.7,0,100,0,26,0,71.5,0,26.3,0,67.8,0,26.3,0,21.2,0
2004/10/3,0:30,15.8,0,100,0,26,0,71.5,0,26.3,0,68.1,0,26.2,0,21.3,0
2004/10/3,0:45,15.4,0,100,0,25.9,0,71.5,0,26.2,0,68.3,0,26.2,0,21.3,0
2004/10/3,1:00,15.3,0,100,0,25.9,0,71.5,0,26.2,0,68.1,0,26.1,0,21.4,0
2004/10/3,1:15,15.4,0,100,0,25.9,0,71.4,0,26.1,0,68.4,0,26.1,0,21.5,0
2004/10/3,1:30,15.1,0,100,0,25.8,0,71.4,0,26.1,0,68.4,0,26.1,0,21.5,0
2004/10/3,1:45,15.1,0,100,0,25.8,0,71.2,0,26,0,68.6,0,26,0,21.6,0
2004/10/3,2:00,15,0,100,0,25.7,0,71.2,0,26,0,68.5,0,26,0,21.6,0
2004/10/3,2:15,15,0,100,0,25.6,0,71.3,0,25.9,0,68.8,0,25.9,0,21.7,0
2004/10/3,2:30,14.8,0,100,0,25.6,0,71.5,0,25.9,0,68.8,0,25.9,0,21.7,0
2004/10/3,2:45,14.8,0,100,0,25.5,0,71.7,0,25.8,0,68.7,0,25.8,0,21.8,0
2004/10/3,3:00,14.7,0,100,0,25.5,0,71.7,0,25.8,0,68.7,0,25.8,0,21.9,0
2004/10/3,3:15,14.7,0,100,0,25.4,0,71.7,0,25.7,0,69,0,25.7,0,21.9,0
2004/10/3,3:30,14.8,0,100,0,25.4,0,71.7,0,25.7,0,68.8,0,25.7,0,21.9,0
2004/10/3,3:45,14.7,0,100,0,25.3,0,71.7,0,25.7,0,68.7,0,25.7,0,22,0
2004/10/3,4:00,14.8,0,100,0,25.3,0,71.6,0,25.6,0,68.8,0,25.6,0,22,0
2004/10/3,4:15,14.6,0,100,0,25.3,0,71.7,0,25.6,0,68.7,0,25.6,0,22.1,0
2004/10/3,4:30,14.4,0,100,0,25.2,0,71.7,0,25.5,0,68.7,0,25.5,0,22.1,0
2004/10/3,4:45,14.4,0,100,0,25.2,0,71.6,0,25.5,0,68.8,0,25.5,0,22.2,0
2004/10/3,5:00,14.5,0,100,0,25.1,0,71.6,0,25.5,0,68.9,0,25.4,0,22.2,0
2004/10/3,5:15,14.5,0,100,0,25.1,0,71.6,0,25.4,0,68.8,0,25.4,0,22.3,0
2004/10/3,5:30,14.4,0,100,0,25,0,71.8,0,25.4,0,69,0,25.4,0,22.3,0
2004/10/3,5:45,14.4,0,100,0,25,0,71.8,0,25.3,0,68.9,0,25.3,0,22.3,0
2004/10/3,6:00,14.3,0,100,0,25.3,0,70.1,0,25.3,0,68.8,0,25.3,0,21.1,0
2004/10/3,6:15,14.3,0,100,0,25.3,0,70.1,0,25.2,0,68.9,0,25.2,0,21.1,0
2004/10/3,6:30,14.2,0,100,0,25.3,0,70.1,0,25.2,0,68.7,0,25.2,0,21.2,0
2004/10/3,6:45,14.1,0,100,0,25.2,0,70.1,0,25.1,0,69,0,25.2,0,20.6,0
2004/10/3,7:00,14,0,100,0,25.2,0,70.7,0,25.1,0,68.8,0,25.1,0,20.5,0
2004/10/3,7:15,13.8,0,100,0,25.2,0,71.5,0,25,0,69.4,0,25.1,0,20.6,0
2004/10/3,7:30,14,0,100,0,25.3,0,71.9,0,25,0,69.7,0,25,0,20.6,0
2004/10/3,7:45,14,0,100,0,25.3,0,72.8,0,25,0,70.1,0,25,0,20.7,0
2004/10/3,8:00,13.8,0,100,0,25.3,0,73.2,0,25,0,70.6,0,25,0,20.7,0
2004/10/3,8:15,13.6,0,100,0,25.3,0,72.8,0,24.9,0,70.6,0,25,0,20.5,0
2004/10/3,8:30,13.5,0,100,0,25.2,0,72.6,0,24.9,0,70.3,0,25,0,20.5,0
2004/10/3,8:45,13.9,0,100,0,25.2,0,72.4,0,24.9,0,70.3,0,24.9,0,20.6,0
2004/10/3,9:00,13.5,0,100,0,25.2,0,72.3,0,24.8,0,70.3,0,24.9,0,20.7,0
2004/10/3,9:15,13.5,0,100,0,25.1,0,72.2,0,24.8,0,70.3,0,24.9,0,20.7,0
2004/10/3,9:30,13.4,0,100,0,25.1,0,72.2,0,24.8,0,70.3,0,24.9,0,20.8,0
2004/10/3,9:45,13.5,0,100,0,25,0,73.2,0,24.7,0,70.1,0,24.8,0,20.9,0
2004/10/3,10:00,13.6,0,100,0,25,0,73.4,0,24.7,0,70.9,0,24.8,0,20,0
2004/10/3,10:15,13.3,0,100,0,24.9,0,74,0,24.7,0,70.9,0,24.8,0,20.1,0
2004/10/3,10:30,13.1,0,100,0,24.9,0,73.2,0,24.6,0,70.6,0,24.8,0,20.2,0
2004/10/3,10:45,13.5,0,100,0,24.8,0,73.1,0,24.6,0,70.3,0,24.7,0,20.3,0
2004/10/3,11:00,13.3,0,100,0,24.8,0,72.7,0,24.6,0,70.3,0,24.7,0,20.3,0
2004/10/3,11:15,13.4,0,100,0,24.7,0,72.4,0,24.5,0,70.2,0,24.7,0,20.4,0
2004/10/3,11:30,13.2,0,100,0,24.7,0,72.4,0,24.5,0,70.1,0,24.6,0,20.5,0
2004/10/3,11:45,13.3,0,100,0,24.6,0,72.1,0,24.5,0,70,0,24.6,0,20.6,0
2004/10/3,12:00,13.3,0,100,0,24.6,0,72,0,24.4,0,70,0,24.5,0,20.7,0
2004/10/3,12:15,13.6,0,100,0,24.5,0,71.9,0,24.4,0,70,0,24.5,0,20.7,0
2004/10/3,12:30,13.7,0,100,0,24.5,0,71.6,0,24.4,0,69.9,0,24.5,0,20.8,0
2004/10/3,12:45,13.5,0,100,0,24.5,0,71.4,0,24.4,0,69.9,0,24.4,0,20.9,0
2004/10/3,13:00,13.8,0,100,0,24.4,0,71.4,0,24.3,0,69.9,0,24.4,0,20.9,0
2004/10/3,13:15,13.8,0,100,0,24.4,0,71.4,0,24.3,0,69.9,0,24.4,0,21,0
2004/10/3,13:30,13.9,0,100,0,24.4,0,71.1,0,24.3,0,69.8,0,24.3,0,21.1,0
2004/10/3,13:45,14.4,0,100,0,24.3,0,71,0,24.2,0,69.8,0,24.3,0,21.1,0
2004/10/3,14:00,14.4,0,100,0,24.3,0,70.9,0,24.2,0,69.8,0,24.3,0,21.2,0
2004/10/3,14:15,14.3,0,100,0,24.2,0,70.8,0,24.2,0,69.7,0,24.2,0,21.3,0
2004/10/3,14:30,14,0,100,0,24.2,0,70.7,0,24.1,0,69.8,0,24.2,0,21.3,0
2004/10/3,14:45,14.1,0,100,0,24.2,0,70.8,0,24.1,0,69.8,0,24.1,0,21.4,0
2004/10/3,15:00,14.1,0,100,0,24.1,0,70.8,0,24.1,0,69.7,0,24.1,0,21.4,0
2004/10/3,15:15,14,0,100,0,24.1,0,70.9,0,24,0,69.6,0,24.1,0,21.5,0
2004/10/3,15:30,14.1,0,100,0,24,0,70.8,0,24,0,69.7,0,24,0,21.5,0
2004/10/3,15:45,14,0,100,0,24,0,70.8,0,24,0,69.6,0,24,0,21.6,0
2004/10/3,16:00,14,0,100,0,24,0,70.8,0,23.9,0,69.6,0,23.9,0,21.6,0
2004/10/3,16:15,13.9,0,100,0,23.9,0,70.9,0,23.9,0,69.6,0,23.9,0,21.7,0
2004/10/3,16:30,13.9,0,100,0,23.9,0,70.7,0,23.9,0,69.6,0,23.9,0,21.7,0
2004/10/3,16:45,13.7,0,100,0,23.9,0,69.8,0,23.8,0,69.6,0,23.8,0,21.8,0
2004/10/3,17:00,13.8,0,100,0,23.9,0,71.7,0,23.8,0,69.7,0,23.8,0,21.8,0
2004/10/3,17:15,13.5,0,100,0,24,0,74.5,0,23.9,0,71.2,0,23.8,0,21.8,0
2004/10/3,17:30,13.5,0,100,0,24,0,74.4,0,23.8,0,71.1,0,23.8,0,21.9,0
2004/10/3,17:45,13.5,0,100,0,24,0,73.1,0,23.8,0,70.9,0,23.8,0,21.9,0
2004/10/3,18:00,13.6,0,100,0,24,0,72.8,0,23.7,0,70.8,0,23.8,0,22,0
2004/10/3,18:15,13.8,0,100,0,24,0,72.5,0,23.7,0,70.7,0,23.7,0,22,0
2004/10/3,18:30,13.5,0,100,0,24,0,72.2,0,23.7,0,70.6,0,23.7,0,20.7,0
2004/10/3,18:45,13.5,0,100,0,24,0,72,0,23.7,0,70.6,0,23.7,0,20.8,0
2004/10/3,19:00,13.3,0,100,0,24,0,71.8,0,23.6,0,70.6,0,23.7,0,20.8,0
2004/10/3,19:15,13.5,0,100,0,24,0,71.7,0,23.6,0,70.6,0,23.7,0,20.9,0
2004/10/3,19:30,13.5,0,100,0,24,0,71.5,0,23.6,0,70.5,0,23.6,0,20.9,0
2004/10/3,19:45,13.5,0,100,0,24,0,71.4,0,23.5,0,70.6,0,23.6,0,21,0
2004/10/3,20:00,14.2,0,100,0,24,0,71.3,0,23.5,0,70.5,0,23.6,0,21,0
2004/10/3,20:15,13.3,0,100,0,24,0,71.1,0,23.5,0,70.4,0,23.6,0,21.1,0
2004/10/3,20:30,13.2,0,100,0,24,0,71,0,23.5,0,70.4,0,23.5,0,21.1,0
2004/10/3,20:45,13.4,0,100,0,24,0,70.9,0,23.4,0,70.4,0,23.5,0,21.1,0
2004/10/3,21:00,13.3,0,100,0,24,0,70.7,0,23.4,0,70.3,0,23.5,0,19.8,0
2004/10/3,21:15,13.1,0,100,0,23.9,0,70.6,0,23.4,0,70.3,0,23.5,0,19.8,0
2004/10/3,21:30,13.3,0,100,0,23.9,0,70.6,0,23.4,0,70.3,0,23.4,0,19.9,0
2004/10/3,21:45,13.5,0,100,0,23.9,0,70.6,0,23.3,0,70.3,0,23.4,0,19.9,0
2004/10/3,22:00,13.2,0,100,0,24,0,70.5,0,23.3,0,70.4,0,23.4,0,19.9,0
2004/10/3,22:15,13.1,0,100,0,23.9,0,70.6,0,23.3,0,70.4,0,23.4,0,20,0
2004/10/3,22:30,13,0,100,0,23.9,0,70.4,0,23.3,0,70.3,0,23.3,0,20.1,0
2004/10/3,22:45,13.2,0,100,0,24,0,70.6,0,23.2,0,70.6,0,23.3,0,20.1,0
2004/10/3,23:00,13,0,100,0,23.9,0,70.5,0,23.2,0,70.6,0,23.3,0,20.1,0
2004/10/3,23:15,13,0,100,0,23.9,0,71.8,0,23.2,0,71,0,23.3,0,20.2,0
2004/10/3,23:30,12.8,0,100,0,23.9,0,72.2,0,23.2,0,71.7,0,23.3,0,20.3,0
2004/10/3,23:45,12.8,0,100,0,23.9,0,72.3,0,23.2,0,72,0,23.3,0,20.3,0
2004/10/4,0:00,12.8,0,100,0,23.9,0,72.2,0,23.1,0,72,0,23.2,0,20.4,0
2004/10/4,0:15,12.7,0,100,0,23.8,0,72,0,23.2,0,71.5,0,23.2,0,20.4,0
2004/10/4,0:30,12.8,0,100,0,23.8,0,71.9,0,23.2,0,71.1,0,23.2,0,20,0
2004/10/4,0:45,12.7,0,100,0,23.7,0,71.8,0,23.2,0,71.9,0,23.2,0,20.1,0
2004/10/4,1:00,12.6,0,100,0,23.7,0,73.5,0,23.2,0,72.4,0,23.2,0,20.1,0
2004/10/4,1:15,12.6,0,100,0,23.6,0,73.6,0,23.1,0,72.6,0,23.1,0,20.1,0
2004/10/4,1:30,12.6,0,100,0,23.5,0,73.6,0,23,0,72.9,0,23.1,0,20.2,0
2004/10/4,1:45,12.6,0,100,0,23.5,0,73.4,0,23,0,72.9,0,23.1,0,20.2,0
2004/10/4,2:00,12.5,0,100,0,23.4,0,73.3,0,23,0,72.8,0,23,0,20.3,0
2004/10/4,2:15,12.5,0,100,0,23.4,0,73.3,0,22.9,0,72.9,0,23,0,20.3,0
2004/10/4,2:30,12.5,0,100,0,23.4,0,73.2,0,22.9,0,72.6,0,22.9,0,20.4,0
2004/10/4,2:45,12.5,0,100,0,23.3,0,73.2,0,22.9,0,72.6,0,22.9,0,20.4,0
2004/10/4,3:00,12.6,0,100,0,23.3,0,73.3,0,22.9,0,72.1,0,22.8,0,20.5,0
2004/10/4,3:15,12.6,0,100,0,23.2,0,73,0,22.9,0,72.1,0,22.8,0,20.5,0
2004/10/4,3:30,12.7,0,100,0,23.2,0,72.9,0,22.9,0,72.1,0,22.8,0,20.5,0
2004/10/4,3:45,12.8,0,100,0,23.1,0,72.9,0,22.9,0,72.2,0,22.7,0,20.6,0
2004/10/4,4:00,12.8,0,100,0,23.1,0,72.7,0,22.8,0,72.3,0,22.7,0,20.6,0
2004/10/4,4:15,12.8,0,100,0,23.1,0,72.6,0,22.8,0,72.3,0,22.7,0,20.7,0
2004/10/4,4:30,12.9,0,100,0,23,0,72.4,0,22.7,0,72.1,0,22.6,0,20.7,0
2004/10/4,4:45,12.8,0,100,0,23,0,72.3,0,22.7,0,72.3,0,22.6,0,20.8,0
2004/10/4,5:00,12.9,0,100,0,23,0,72.2,0,22.7,0,72.3,0,22.6,0,20.8,0
2004/10/4,5:15,13,0,100,0,22.9,0,72.1,0,22.7,0,72.1,0,22.5,0,20.8,0
2004/10/4,5:30,13.1,0,100,0,22.9,0,72.1,0,22.6,0,72.2,0,22.5,0,20.9,0
2004/10/4,5:45,13.1,0,100,0,22.8,0,72,0,22.6,0,72.3,0,22.5,0,20.9,0
2004/10/4,6:00,13.2,0,100,0,22.8,0,72,0,22.6,0,72.4,0,22.4,0,20.9,0
2004/10/4,6:15,13.2,0,100,0,22.8,0,71.9,0,22.6,0,72.1,0,22.4,0,21,0
2004/10/4,6:30,13.3,0,100,0,22.7,0,71.9,0,22.5,0,72.1,0,22.4,0,21,0
2004/10/4,6:45,13.4,0,100,0,22.7,0,72.2,0,22.5,0,72,0,22.3,0,21,0
2004/10/4,7:00,13.3,0,100,0,22.8,0,73.9,0,22.5,0,72.1,0,22.3,0,20.6,0
2004/10/4,7:15,13.4,0,100,0,22.8,0,74.7,0,22.5,0,72.3,0,22.3,0,20.4,0
2004/10/4,7:30,13.9,0,100,0,22.9,0,75.9,0,22.5,0,72.9,0,22.3,0,20.4,0
2004/10/4,7:45,13.7,0,100,0,22.9,0,75.5,0,22.5,0,72.9,0,22.3,0,20.5,0
2004/10/4,8:00,13.8,0,100,0,22.9,0,75.3,0,22.5,0,72.7,0,22.4,0,20.5,0
2004/10/4,8:15,13.7,0,100,0,22.9,0,74.8,0,22.4,0,73,0,22.4,0,20.1,0
2004/10/4,8:30,13.6,0,100,0,22.9,0,74.6,0,22.4,0,72.8,0,22.4,0,20.2,0
2004/10/4,8:45,13.9,0,100,0,22.9,0,75.2,0,22.4,0,72.6,0,22.4,0,19.9,0
2004/10/4,9:00,13.8,0,100,0,22.9,0,74.9,0,22.4,0,73.2,0,22.4,0,19.9,0
2004/10/4,9:15,14,0,100,0,22.8,0,74.3,0,22.4,0,73.2,0,22.4,0,20,0
2004/10/4,9:30,14.1,0,100,0,22.8,0,74.6,0,22.4,0,73.1,0,22.4,0,20,0
2004/10/4,9:45,14.3,0,100,0,22.8,0,74.2,0,22.4,0,73.3,0,22.4,0,20.1,0
2004/10/4,10:00,14.3,0,100,0,22.8,0,75.9,0,22.4,0,73.5,0,22.5,0,20.2,0
2004/10/4,10:15,14.6,0,100,0,22.8,0,74.8,0,22.4,0,73.7,0,22.5,0,20.2,0
2004/10/4,10:30,14.5,0,100,0,22.7,0,74.5,0,22.4,0,73.5,0,22.5,0,20.3,0
2004/10/4,10:45,14.4,0,100,0,22.7,0,74.9,0,22.4,0,73.2,0,22.6,0,20.4,0
2004/10/4,11:00,14.7,0,100,0,22.7,0,74.6,0,22.4,0,72.8,0,22.6,0,20.4,0
2004/10/4,11:15,14.8,0,100,0,22.7,0,75.1,0,22.4,0,72.7,0,22.6,0,20.5,0
2004/10/4,11:30,15.3,0,100,0,22.7,0,75.9,0,22.5,0,72.6,0,22.7,0,20.6,0
2004/10/4,11:45,16,0,100,0,22.7,0,75.2,0,22.5,0,72.5,0,22.7,0,20.7,0
2004/10/4,12:00,15.8,0,100,0,22.7,0,75.2,0,22.5,0,72.5,0,22.8,0,20.7,0
2004/10/4,12:15,16.3,0,100,0,22.7,0,75.4,0,22.5,0,72.4,0,22.8,0,20.8,0